Location: *
(6.0000°S, 32.3997°W)
Time: 16:47:10
(UTC+00:00)

Ariane H10+ - Pass Details

Date: 01 April 2020
Orbit: 236 x 8329 km, 6.7° (Epoch: 26 May)

Event Time Altitude Azimuth Distance (km) Brightness Sun altitude
Rises 22:04:30 0° 275° (W) 5,517 7.7 -28.1°
Reaches altitude 10° 22:09:48 10° 276° (W) 3,319 6.2 -29.4°
Enters shadow 22:15:17 43° 280° (W) 937 2.8 -30.8°
